Location: Newark
(7.0858°N, 171.3717°E)
Time: 14:59:43
(UTC+00:00)

Courier 1B Rocket - Pass Details

Date: 06 December 2020
Orbit: 920 x 1202 km, 28.2° (Epoch: 20 January)

Event Time Altitude Azimuth Distance (km) Brightness Sun altitude
Rises 09:01:55 0° 201° (SSW) 3,569 8.5 -38.7°
Enters shadow 09:05:49 - 176° (S) 2,790 7.5 -39.5°
Reaches altitude 10° 09:06:57 10° 166° (SSE) 2,669 - -39.8°
Maximum altitude 09:08:39 11° 151° (SSE) 2,613 - -40.2°
Drops below altitude 10° 09:10:22 10° 135° (SE) 2,709 - -40.6°
Sets 09:15:37 0° 102° (ESE) 3,734 - -41.8°
